Temp
62 62 62 61 60 60 60 59 59 58 58 58 59 59 59 58 58 69 65 70 69 65 65 74 75 75 77 74 75 76 66 64 67 67 69 74 72 78 79 77 79 80 81 84 88
62 62 62 62 60 60 59 59 58 58 58 58 58 58 58 58 63 65 70 65 65 65 74 72 70 72 71 71 72 69 65 67 74 73 71 73 73 75 72 76 75 78 84 86 87
62 62 62 62 61 60 59 59 58 58 58 58 58 58 58 60 64 71 67 64 65 68 76 76 73 71 67 70 69 69 63 72 69 71 74 72 71 75 70 68 74 74 78 83 83
62 61 61 61 61 60 59 58 58 58 58 58 58 58 58 65 59 75 67 65 65 75 75 72 71 66 65 63 71 61 68 69 71 72 71 69 73 69 71 72 78 79 80 81 80
61 60 61 61 61 60 58 58 58 57 57 57 58 58 63 62 66 75 67 66 73 73 72 71 67 67 63 65 67 62 67 69 70 69 70 71 68 68 70 76 78 79 78 78 79
60 60 60 60 60 59 58 57 57 56 56 57 57 56 60 54 76 75 74 73 74 72 72 72 69 72 66 64 63 66 65 67 68 68 69 65 68 70 70 75 75 76 76 77 78
60 59 59 60 59 59 57 56 56 56 56 57 57 61 55 60 75 75 70 72 74 73 70 73 73 68 68 62 68 65 60 65 67 67 67 70 63 65 73 76 73 73 75 77 77
59 60 58 58 58 57 56 55 54 54 56 57 57 59 53 72 74 69 73 71 73 74 72 73 73 69 65 68 64 59 62 55 65 65 67 65 57 69 73 72 71 74 76 76 78
58 59 59 57 57 56 55 53 53 54 55 56 57 55 54 67 64 72 73 67 72 71 71 71 70 65 63 58 57 59 53 56 59 66 66 63 60 67 72 71 71 73 74 75 76
58 58 58 57 56 54 53 53 52 54 54 57 56 49 60 62 68 69 71 71 67 66 63 63 63 58 59 57 49 55 54 57 55 63 62 61 61 67 71 71 70 72 73 74 73
58 58 58 57 55 52 51 49 45 47 49 54 56 58 61 68 70 69 70 66 68 64 55 61 54 51 56 58 59 58 54 53 59 64 58 57 60 65 70 70 70 71 72 72 70
58 58 58 56 54 53 53 50 52 54 46 55 57 57 64 65 58 66 72 62 59 55 60 56 49 60 62 60 56 54 51 52 58 61 57 58 59 65 69 69 70 71 69 67 67
58 57 58 55 53 50 50 51 58 57 42 53 59 58 60 62 56 61 66 64 58 56 57 52 57 60 57 55 51 52 51 52 52 58 60 58 56 62 65 67 68 67 67 65 63
57 56 55 52 48 48 45 54 53 54 33 50 51 57 60 60 53 67 71 65 58 54 57 53 62 55 54 52 54 48 58 54 52 51 47 57 47 58 63 62 64 63 63 62 61
56 56 52 55 46 45 55 55 52 51 25 53 53 65 61 55 59 62 70 64 55 55 55 51 53 53 51 53 56 51 58 54 54 52 51 52 47 58 61 58 60 61 59 59 59
56 54 53 48 50 54 54 55 49 33 27 44 54 50 50 54 56 59 60 65 64 54 54 54 60 57 56 58 58 58 54 53 53 51 40 50 50 55 57 59 59 57 56 56 57
53 52 54 54 48 54 55 46 31 29 49 46 48 51 51 50 51 54 51 51 49 42 44 51 53 56 56 52 55 53 49 40 38 38 38 51 49 56 57 56 56 52 55 56 57
53 52 51 49 51 53 47 37 28 42 45 51 51 51 47 52 50 51 49 45 51 50 46 42 38 51 54 52 50 50 50 41 31 36 43 48 42 52 55 53 52 51 52 52 53
49 46 45 48 50 51 41 31 36 43 49 46 49 44 46 49 50 49 47 47 51 52 44 40 40 50 51 51 49 48 42 49 40 43 38 46 51 51 50 48 50 50 51 50 50
44 42 42 48 50 45 36 35 42 51 51 50 43 48 43 46 46 48 46 49 45 48 53 42 35 44 47 50 50 47 51 37 40 29 30 43 45 49 45 46 47 44 46 49 51
43 35 40 47 47 38 32 36 44 51 52 47 46 44 46 43 47 45 44 44 48 42 48 45 41 38 43 42 44 44 42 42 43 41 33 33 42 48 42 43 43 47 48 48 49
37 30 42 46 34 36 33 40 43 42 47 47 48 46 44 42 42 41 40 44 48 48 42 44 43 37 39 45 47 46 42 44 34 34 38 37 40 50 47 47 47 47 46 48 48
33 33 41 42 31 34 40 40 45 45 48 47 44 48 46 38 34 39 40 44 47 45 44 45 40 33 34 39 43 41 43 43 39 38 33 31 39 50 45 45 44 45 45 45 45
36 31 33 36 36 40 35 35 36 47 46 47 45 47 44 40 41 37 38 42 45 47 44 47 42 38 34 36 42 35 40 42 37 30 35 38 40 47 49 49 47 44 43 43 42
43 38 44 31 34 38 38 38 37 38 47 48 44 45 43 37 39 38 41 41 44 43 43 43 34 39 40 41 39 39 39 40 38 38 31 35 35 40 46 47 42 42 41 40 38
38 42 45 43 40 38 38 41 41 42 44 42 42 44 45 41 43 38 42 42 40 42 40 40 32 34 33 39 39 36 40 41 40 39 38 39 35 47 49 41 39 37 37 36 34
50 47 45 37 38 37 39 43 44 44 43 47 46 44 41 42 46 47 47 47 45 41 37 38 35 31 26 35 34 29 36 38 40 41 39 30 39 47 38 37 37 35 35 32 31
MSLP
1019.09 1019.00 1019.53 1019.38 1019.73 1019.75 1019.77 1019.74 1019.78 1019.61 1019.59 1019.22 1018.84 1018.65 1018.30 1017.84 1017.22 1015.70 1014.64 1014.12 1014.02 1014.29 1014.35 1013.47 1013.15 1012.85 1012.63 1011.84 1011.56 1011.06 1009.21 1007.22 1006.51 1006.60 1006.47 1007.19 1007.16 1007.17 1007.67 1007.37 1007.21 1007.20 1006.75 1006.63 1006.56
1018.52 1018.46 1018.99 1019.02 1019.24 1019.22 1019.46 1019.58 1019.62 1019.67 1019.39 1019.19 1018.85 1018.51 1018.09 1017.65 1016.38 1014.57 1013.52 1014.20 1014.36 1014.29 1013.43 1012.99 1012.56 1012.46 1011.94 1011.66 1011.31 1010.38 1008.72 1007.08 1006.93 1007.06 1007.08 1007.32 1007.43 1007.29 1007.72 1006.98 1006.91 1006.77 1006.59 1006.65 1006.51
1017.91 1018.13 1018.27 1018.53 1018.74 1018.82 1019.03 1019.25 1019.41 1019.52 1019.26 1019.04 1018.83 1018.57 1017.86 1017.33 1015.19 1012.84 1013.55 1014.09 1014.28 1014.55 1013.34 1012.66 1012.50 1012.24 1011.61 1011.54 1010.92 1009.89 1008.49 1007.88 1008.38 1008.48 1008.03 1007.70 1007.44 1007.63 1007.53 1007.03 1006.94 1006.60 1006.47 1006.44 1006.40
1017.21 1017.51 1017.69 1017.88 1018.20 1018.29 1018.58 1019.03 1019.15 1019.14 1019.14 1019.00 1018.78 1018.42 1017.78 1016.73 1014.55 1012.99 1013.56 1013.86 1014.23 1013.93 1013.37 1012.77 1012.14 1011.84 1011.33 1010.57 1010.30 1010.13 1009.48 1008.99 1008.76 1008.75 1008.45 1008.01 1007.86 1007.35 1007.23 1006.95 1007.10 1006.85 1006.62 1006.45 1006.27
1016.70 1016.78 1017.16 1017.36 1017.56 1017.85 1018.16 1018.71 1018.99 1019.03 1018.99 1018.87 1018.81 1018.49 1017.39 1015.62 1013.14 1013.23 1013.70 1014.06 1013.86 1013.69 1012.93 1012.37 1011.85 1011.12 1010.66 1010.38 1010.24 1009.96 1009.25 1009.00 1008.97 1008.97 1008.65 1008.32 1007.77 1007.30 1006.92 1006.86 1006.92 1006.78 1006.58 1006.38 1006.16
1016.20 1016.12 1016.40 1016.81 1017.07 1017.35 1017.75 1018.30 1018.64 1019.05 1018.84 1018.65 1018.69 1018.65 1017.22 1014.86 1012.42 1013.07 1013.00 1013.58 1013.32 1013.35 1012.67 1012.25 1011.54 1011.20 1010.58 1010.48 1010.16 1009.49 1009.50 1008.97 1008.71 1008.42 1008.26 1008.15 1007.25 1007.05 1006.56 1006.58 1006.42 1006.41 1006.31 1006.16 1006.02
1015.67 1015.70 1015.71 1016.11 1016.51 1017.04 1017.37 1017.96 1018.25 1018.75 1018.90 1018.59 1018.67 1017.96 1016.78 1013.75 1012.61 1012.84 1013.29 1012.85 1013.23 1012.80 1012.42 1012.13 1011.83 1011.65 1010.71 1010.27 1010.03 1009.90 1009.33 1008.56 1008.12 1008.02 1007.49 1007.53 1006.65 1005.84 1006.14 1005.84 1005.89 1006.08 1005.95 1005.93 1005.93
1015.26 1015.15 1015.05 1015.72 1016.21 1016.75 1017.07 1017.70 1018.00 1018.45 1018.62 1018.49 1018.48 1017.75 1014.97 1012.77 1013.04 1012.86 1012.51 1012.48 1012.86 1012.84 1012.58 1012.30 1012.20 1011.40 1011.26 1010.51 1009.93 1009.59 1008.72 1007.64 1006.88 1007.26 1007.26 1007.35 1005.27 1004.83 1005.54 1005.67 1005.43 1005.35 1005.40 1005.50 1005.49
1014.67 1014.64 1014.24 1014.83 1015.71 1016.26 1016.96 1017.53 1018.04 1018.34 1018.49 1018.42 1018.30 1017.41 1013.54 1012.61 1012.37 1011.57 1011.60 1011.85 1012.00 1012.56 1012.70 1012.59 1012.31 1011.41 1010.89 1010.32 1009.18 1008.33 1006.96 1006.61 1006.55 1007.02 1006.81 1006.81 1005.02 1005.28 1005.54 1005.46 1005.10 1005.00 1005.07 1005.17 1005.36
1013.73 1013.93 1013.68 1014.14 1014.88 1015.77 1016.79 1017.49 1018.05 1018.14 1018.19 1018.05 1018.04 1017.37 1013.13 1011.27 1010.87 1010.92 1011.23 1011.67 1011.61 1012.01 1012.55 1012.21 1011.51 1010.58 1010.16 1009.23 1007.25 1006.38 1006.45 1006.55 1006.50 1006.34 1006.82 1005.90 1005.21 1005.00 1005.08 1004.97 1004.61 1004.59 1004.85 1005.12 1005.57
1012.60 1012.77 1013.11 1013.65 1014.30 1015.09 1016.49 1017.85 1018.23 1017.68 1017.08 1015.08 1014.25 1013.03 1011.88 1011.30 1011.15 1010.26 1010.54 1011.07 1011.07 1011.07 1010.89 1010.95 1010.20 1008.41 1008.45 1008.38 1007.92 1007.24 1007.16 1006.68 1006.44 1006.54 1006.57 1005.98 1004.96 1004.27 1004.05 1004.16 1003.99 1004.27 1004.42 1005.11 1006.00
1011.49 1011.70 1012.25 1013.32 1013.89 1014.87 1015.22 1015.64 1015.40 1015.42 1014.80 1014.19 1013.69 1012.35 1011.20 1011.45 1010.58 1009.94 1010.28 1009.96 1010.00 1009.42 1009.60 1009.92 1008.78 1007.80 1007.91 1008.22 1008.13 1007.82 1007.39 1006.83 1006.63 1006.66 1006.68 1005.40 1004.12 1003.59 1003.16 1003.11 1003.69 1004.00 1004.77 1005.96 1006.53
1010.32 1010.73 1011.45 1012.55 1013.88 1014.74 1014.79 1014.75 1014.94 1015.31 1015.26 1012.08 1011.65 1010.63 1010.10 1010.76 1009.63 1008.52 1009.61 1008.81 1008.59 1008.39 1007.96 1007.74 1007.19 1007.50 1007.89 1007.99 1007.93 1007.40 1007.08 1006.91 1006.74 1006.44 1005.95 1005.09 1003.35 1002.12 1002.56 1002.90 1004.01 1004.95 1005.88 1006.81 1007.43
1009.20 1009.67 1010.76 1012.43 1014.35 1014.22 1014.72 1015.17 1015.20 1015.46 1014.99 1010.99 1009.85 1008.87 1009.08 1009.45 1008.48 1007.97 1007.88 1007.93 1008.14 1007.72 1007.90 1007.74 1007.25 1007.58 1007.78 1007.51 1007.72 1006.77 1006.90 1007.27 1006.96 1006.38 1004.75 1004.89 1002.51 1001.92 1002.30 1003.05 1004.27 1005.53 1006.44 1007.54 1008.36
1008.13 1008.69 1009.99 1010.56 1012.53 1013.59 1013.18 1014.71 1015.13 1015.72 1013.54 1009.16 1008.91 1008.95 1008.64 1008.47 1006.93 1006.19 1006.99 1007.40 1006.82 1007.39 1007.81 1007.10 1007.50 1007.37 1007.16 1006.91 1007.28 1006.82 1007.05 1007.04 1006.62 1005.94 1005.27 1004.24 1003.64 1000.95 1002.41 1003.21 1004.54 1006.00 1007.41 1008.55 1009.34
1007.24 1008.39 1009.26 1011.31 1011.84 1012.09 1013.16 1014.30 1014.98 1014.99 1010.68 1008.58 1008.30 1008.51 1008.26 1007.92 1007.02 1006.94 1006.90 1007.63 1007.31 1007.66 1007.91 1007.33 1007.60 1007.41 1006.88 1007.11 1007.43 1007.68 1007.41 1007.04 1006.74 1006.09 1004.68 1003.54 1003.14 1001.19 1002.12 1003.24 1005.16 1007.03 1008.35 1009.21 1009.74
1006.97 1008.16 1008.88 1010.01 1011.07 1012.09 1012.72 1013.83 1014.57 1011.95 1009.44 1007.97 1007.29 1007.64 1007.20 1006.99 1006.98 1006.72 1006.92 1007.03 1006.71 1007.22 1007.07 1007.34 1007.27 1007.55 1007.62 1007.28 1007.63 1007.84 1007.22 1006.33 1005.87 1005.35 1003.68 1003.49 1003.12 1002.14 1003.84 1005.36 1006.58 1008.16 1009.09 1009.70 1010.16
1006.80 1008.42 1009.08 1010.16 1010.78 1011.03 1012.10 1013.40 1011.41 1008.91 1007.94 1007.38 1007.05 1006.56 1006.66 1006.52 1006.27 1006.55 1006.72 1006.99 1007.54 1007.08 1006.63 1006.95 1007.35 1007.73 1008.05 1007.73 1007.28 1007.37 1006.95 1006.24 1005.13 1004.37 1003.55 1004.50 1003.38 1003.22 1005.77 1007.42 1008.69 1009.66 1010.33 1010.78 1010.69
1007.51 1009.34 1010.02 1010.39 1010.43 1010.85 1010.94 1011.45 1009.07 1008.15 1007.15 1006.90 1007.04 1006.54 1006.29 1006.36 1006.24 1006.58 1006.92 1007.15 1007.57 1007.74 1007.18 1007.57 1007.99 1008.98 1009.07 1009.07 1009.04 1007.87 1007.76 1007.79 1007.22 1006.47 1005.65 1004.00 1003.72 1005.54 1007.11 1008.41 1009.25 1010.29 1010.93 1011.39 1011.63
1007.95 1009.50 1010.67 1010.61 1010.55 1011.00 1011.19 1009.56 1008.74 1007.47 1007.04 1006.78 1005.86 1005.76 1005.59 1006.02 1006.20 1006.40 1007.11 1007.87 1008.63 1008.84 1008.27 1009.28 1009.31 1009.61 1009.87 1009.89 1009.60 1009.05 1008.81 1008.74 1008.44 1007.19 1005.48 1003.82 1003.73 1004.26 1007.00 1008.35 1009.89 1011.11 1011.42 1011.57 1011.61
1008.18 1010.10 1011.39 1011.13 1011.03 1011.04 1010.55 1009.48 1008.62 1008.01 1007.55 1006.74 1006.06 1006.15 1006.00 1006.72 1006.53 1006.94 1007.74 1008.99 1008.82 1009.60 1009.62 1009.79 1010.25 1010.50 1010.52 1010.01 1009.29 1009.59 1009.29 1009.42 1009.15 1008.14 1006.73 1005.33 1004.73 1006.26 1008.10 1009.70 1010.49 1010.96 1011.54 1011.83 1011.89
1008.98 1010.77 1011.39 1010.99 1011.57 1010.81 1009.87 1009.36 1008.94 1008.22 1007.96 1007.20 1007.06 1006.90 1006.90 1007.71 1007.59 1007.95 1008.42 1008.73 1009.52 1009.74 1009.80 1010.46 1009.90 1009.74 1010.14 1010.69 1010.71 1010.29 1009.94 1009.76 1009.56 1008.82 1008.41 1007.61 1006.63 1007.97 1009.09 1009.99 1010.79 1011.39 1012.04 1012.43 1012.68
1009.19 1010.88 1011.88 1011.41 1010.43 1010.03 1009.77 1009.22 1008.48 1008.12 1007.74 1007.33 1007.37 1007.21 1007.91 1008.54 1009.27 1009.25 1009.55 1010.41 1010.30 1010.16 1009.99 1010.42 1010.33 1010.18 1010.59 1011.12 1010.86 1010.33 1010.34 1010.46 1010.83 1010.49 1009.30 1008.24 1006.89 1008.50 1009.94 1010.48 1011.47 1012.16 1012.72 1013.12 1013.53
1008.52 1010.03 1011.43 1011.16 1010.16 1009.10 1009.38 1009.16 1008.56 1008.17 1007.95 1007.76 1007.70 1008.01 1008.41 1008.99 1010.00 1010.07 1010.34 1010.81 1010.88 1010.62 1010.94 1010.88 1010.57 1010.11 1009.69 1009.98 1010.08 1010.65 1010.75 1010.96 1011.12 1010.75 1009.46 1008.25 1007.80 1008.10 1009.01 1009.88 1011.03 1012.77 1013.53 1013.87 1014.21
1007.25 1007.49 1007.71 1008.82 1009.23 1008.90 1008.88 1008.96 1008.14 1008.06 1007.91 1007.91 1008.05 1007.86 1008.27 1008.89 1009.53 1009.93 1010.38 1010.88 1011.22 1011.51 1011.56 1011.45 1011.31 1011.15 1010.95 1011.03 1011.30 1011.03 1010.87 1010.90 1010.71 1010.64 1010.22 1009.38 1009.13 1009.78 1010.31 1010.87 1012.58 1013.83 1014.30 1014.74 1015.34
1006.29 1006.07 1006.79 1006.85 1007.99 1008.38 1008.29 1007.55 1007.38 1007.74 1007.79 1007.91 1007.87 1008.34 1008.67 1008.92 1009.02 1009.54 1010.03 1010.43 1010.79 1011.71 1011.85 1012.25 1012.10 1012.16 1011.77 1011.77 1011.69 1011.34 1011.06 1010.78 1010.74 1010.87 1010.67 1010.42 1009.69 1010.39 1010.77 1012.59 1013.87 1014.90 1015.41 1015.98 1016.62
1006.12 1006.06 1005.86 1007.14 1007.32 1007.59 1007.25 1006.88 1007.00 1007.72 1008.61 1008.11 1008.38 1008.84 1009.43 1010.12 1010.18 1010.36 1010.79 1010.90 1011.17 1011.46 1012.06 1012.32 1012.47 1012.74 1012.26 1012.48 1012.37 1011.71 1010.67 1010.83 1011.00 1011.21 1011.30 1011.24 1010.80 1010.99 1012.47 1013.86 1015.04 1015.97 1016.76 1017.47 1017.77
Wind_Speed
13 11 11 9 10 8 7 5 5 5 8 10 12 16 18 18 21 12 12 2 3 2 7 7 6 7 8 7 7 5 9 12 19 13 11 6 9 4 2 9 7 6 9 13 14
14 13 14 12 10 9 8 7 5 5 7 10 12 14 17 18 15 14 3 2 3 7 10 11 9 10 7 9 7 12 12 15 11 12 13 12 10 11 9 13 13 13 13 10 10
16 15 15 13 12 11 9 8 6 6 6 9 11 14 15 16 10 4 5 10 6 6 6 8 5 9 10 6 11 10 18 15 8 13 12 15 16 12 14 17 15 15 13 11 10
17 16 16 15 14 12 11 9 7 5 5 8 11 13 16 5 11 4 4 10 9 7 7 8 9 9 9 13 13 13 14 14 14 13 15 15 16 18 19 18 17 16 14 11 11
17 16 16 17 16 14 12 9 7 4 4 7 10 11 7 6 10 8 7 8 9 7 10 9 9 8 12 6 9 17 16 13 14 15 17 16 19 22 19 18 16 15 14 13 12
17 18 18 18 17 14 12 10 7 3 3 5 7 9 5 10 5 3 6 8 12 12 14 14 9 10 8 9 12 3 9 11 10 12 14 16 18 17 14 13 13 12 13 12 8
17 18 18 18 17 15 13 11 8 2 5 5 6 6 8 16 1 5 2 7 8 12 13 12 8 10 4 9 9 11 16 16 17 17 16 14 19 23 18 18 11 11 10 8 8
19 18 18 17 16 15 14 12 8 2 6 6 5 6 10 6 7 10 12 12 8 10 8 4 8 11 9 6 10 10 13 13 3 5 7 10 15 4 5 6 10 8 8 8 9
19 20 18 18 16 17 15 12 6 3 5 5 7 6 12 4 8 8 15 12 15 9 8 2 8 11 7 13 12 14 15 14 10 10 11 13 11 3 5 11 12 13 11 8 7
19 19 17 19 20 19 17 11 4 2 4 4 4 7 8 7 4 3 5 11 10 13 11 11 9 12 13 13 15 14 17 14 13 5 11 14 18 16 17 18 18 14 11 9 5
21 19 17 19 22 26 17 7 3 5 7 13 8 8 3 2 4 10 9 12 12 16 19 17 14 21 21 20 21 14 15 17 15 14 14 16 18 15 14 16 16 14 12 4 1
21 20 19 22 26 25 13 7 5 3 7 21 20 22 18 3 9 14 12 14 16 20 19 14 23 22 19 18 17 17 18 17 13 12 10 16 18 17 17 16 13 11 4 2 2
21 20 18 23 26 14 11 7 6 4 2 9 16 17 14 17 17 22 19 19 17 21 23 23 10 9 15 18 19 19 19 15 14 14 16 18 21 17 1 3 6 5 6 5 6
22 20 24 29 14 11 6 8 5 3 1 9 9 10 12 10 12 23 22 18 14 21 20 17 20 11 13 20 16 18 16 15 16 13 10 2 7 6 7 8 9 7 6 7 9
22 21 34 30 15 9 10 14 8 2 5 3 4 3 7 14 9 7 23 23 25 16 13 12 10 16 21 18 14 13 10 14 14 13 13 15 10 6 9 13 9 7 7 8 9
20 33 37 10 3 10 17 16 5 5 9 2 6 9 9 12 6 4 20 18 17 12 15 18 2 7 9 16 18 8 10 11 11 11 13 17 13 10 13 7 10 7 6 7 9
31 35 23 12 11 17 19 7 4 6 5 10 9 9 11 9 11 9 18 21 12 18 19 16 15 4 4 8 7 11 11 9 10 9 11 2 10 9 8 4 7 4 7 9 11
35 31 9 2 17 22 8 2 8 5 13 3 4 8 10 9 6 7 16 17 8 12 9 13 10 10 3 6 8 14 15 10 11 11 5 4 8 5 10 11 10 7 7 8 10
28 5 5 11 16 12 10 6 7 8 7 9 7 11 12 11 6 10 15 19 17 7 11 9 5 3 6 2 3 7 10 4 7 8 10 11 8 10 10 12 8 6 7 8 10
7 5 4 9 14 6 3 5 7 6 4 8 14 11 13 13 12 11 13 3 6 1 4 3 2 2 2 2 2 5 4 4 5 6 12 9 12 5 12 7 6 6 8 9 10
6 5 2 6 7 3 5 4 9 3 5 6 8 7 6 7 9 9 8 5 6 3 4 6 10 5 1 7 9 5 6 5 6 6 8 11 5 7 9 4 3 7 8 10 11
5 4 4 6 4 3 4 8 5 1 1 2 1 2 8 1 6 4 5 3 5 10 8 2 2 8 7 1 6 8 9 10 8 10 8 10 10 5 7 5 6 9 8 9 11
5 4 3 1 6 8 8 7 7 13 10 6 3 5 5 4 2 4 4 2 5 3 7 7 5 6 5 5 4 7 7 6 4 4 12 12 2 10 7 3 4 7 7 8 10
5 7 1 2 2 13 11 7 8 1 3 3 4 4 7 8 7 7 7 2 1 5 6 4 5 8 8 6 2 6 12 10 8 6 12 15 19 12 9 15 5 6 6 7 9
3 4 8 10 6 11 12 13 15 9 4 6 5 8 9 6 9 9 8 8 5 5 3 2 6 8 9 7 6 9 12 15 18 17 17 17 21 16 17 17 4 2 4 6 10
5 5 6 13 12 14 10 16 16 9 9 8 6 7 8 6 6 11 9 8 6 5 4 3 2 3 9 10 11 15 17 19 19 18 22 23 25 20 17 7 1 3 5 7 9
2 2 6 10 13 14 12 14 15 12 5 2 11 9 8 8 7 8 5 5 4 5 6 6 4 5 6 3 6 13 18 16 16 12 13 16 17 17 4 5 2 3 6 7 9
Wind_Direction
237 230 237 232 234 240 250 257 278 304 315 326 333 329 328 328 311 292 280 11 240 237 215 151 178 174 205 203 216 236 240 244 239 248 258 183 263 149 323 260 268 268 281 308 312
235 231 237 233 228 219 228 241 256 284 310 323 331 331 327 323 303 281 114 173 204 175 182 187 177 176 202 221 211 220 238 252 251 256 261 265 260 283 271 256 255 263 261 271 292
234 233 231 231 223 210 210 218 234 272 308 323 329 329 325 316 285 73 126 189 184 217 223 203 205 209 238 230 215 224 249 270 244 260 261 270 271 261 258 265 261 278 289 289 293
233 230 227 225 220 206 202 206 213 248 301 323 329 332 322 289 310 78 101 176 191 219 190 179 181 200 237 219 228 257 245 272 263 269 261 258 271 271 270 271 275 282 283 291 277
232 228 228 225 218 208 195 195 202 229 293 322 330 337 308 254 253 116 124 152 178 199 216 209 214 224 240 239 240 239 256 260 257 261 262 272 263 264 271 271 273 270 272 269 264
238 226 223 225 220 206 187 179 177 219 278 318 325 312 262 262 67 154 196 202 232 231 238 236 248 241 267 237 235 329 265 263 259 253 253 257 262 254 252 259 262 266 262 268 273
253 236 224 221 216 201 173 166 156 185 295 310 311 279 249 254 88 171 178 225 242 234 245 238 238 213 226 239 254 266 271 264 254 250 244 258 265 251 259 262 268 257 240 249 272
269 253 229 222 213 189 164 149 133 207 293 299 286 249 257 242 277 259 237 231 225 218 243 224 226 241 243 275 242 255 256 263 160 217 213 216 270 244 213 233 245 259 263 270 254
264 262 236 211 199 170 147 135 132 250 274 282 245 249 265 134 230 247 220 225 211 205 212 259 220 236 197 234 250 220 262 231 253 220 261 226 271 246 225 244 265 275 272 269 273
249 253 249 205 180 148 130 117 126 255 222 159 287 259 231 240 191 182 174 218 199 193 207 217 223 224 220 223 236 256 238 251 253 213 228 248 264 264 259 262 264 268 273 274 285
245 238 240 194 161 135 122 121 144 197 222 203 202 254 259 268 245 205 168 179 203 199 214 206 225 224 231 226 257 268 272 269 271 269 275 266 264 265 256 250 252 255 247 256 312
259 224 229 185 158 152 141 191 198 30 281 226 250 252 260 297 277 226 174 188 194 211 208 204 234 239 234 244 240 247 258 260 271 270 270 265 275 277 265 249 254 257 176 158 15
252 217 214 165 148 148 166 166 113 172 270 264 224 246 239 211 237 244 198 212 208 218 208 216 247 266 227 229 233 235 245 257 267 288 275 266 269 253 195 166 164 141 110 93 42
241 197 162 139 137 148 169 155 110 356 347 247 201 244 203 197 243 234 211 212 219 238 230 237 252 221 224 234 221 242 233 255 256 259 261 143 288 193 225 158 173 143 100 55 28
211 185 149 154 130 176 160 157 146 224 265 68 137 51 157 195 342 200 204 210 223 210 205 218 230 236 234 231 213 252 256 246 244 251 262 252 253 243 166 176 155 126 72 48 23
180 155 150 116 87 143 126 135 146 148 248 254 167 192 176 212 241 54 184 225 227 230 225 253 203 232 253 235 243 269 230 231 243 251 248 244 229 271 171 176 126 108 69 32 11
149 153 157 156 152 142 134 130 127 218 142 195 202 188 216 198 208 193 186 195 193 205 211 209 214 184 228 197 186 219 228 229 218 208 243 77 213 251 133 82 60 98 38 11 2
157 154 131 149 144 146 135 124 202 221 216 55 244 202 216 183 190 199 187 199 240 246 222 209 194 202 150 253 245 214 230 247 257 247 259 174 238 120 102 113 99 83 36 359 353
124 106 117 157 150 152 122 216 196 211 185 188 201 212 205 201 220 182 191 200 198 224 218 209 173 86 57 12 290 184 225 352 283 260 269 254 205 140 137 142 121 64 17 3 346
119 101 104 157 158 135 125 193 218 189 185 203 211 205 209 193 195 205 187 171 151 55 21 86 236 223 133 233 117 289 57 191 217 253 253 244 239 230 171 123 58 16 354 353 349
92 105 291 130 125 101 181 175 189 169 204 198 209 201 226 187 211 184 180 141 150 77 117 174 229 137 209 211 252 189 213 232 301 266 274 281 280 38 91 103 20 9 4 0 356
103 104 174 142 150 225 161 165 145 185 333 93 103 119 206 75 166 130 142 70 138 156 167 163 217 228 211 5 262 254 259 255 239 239 249 291 277 117 101 54 6 12 5 358 355
86 97 314 227 186 170 153 143 178 175 187 175 139 79 52 103 51 323 76 53 144 157 151 166 195 197 193 201 196 218 210 201 226 253 251 250 217 123 142 138 16 340 355 355 352
136 127 156 260 312 168 158 158 153 144 140 130 163 166 175 164 176 178 161 101 113 129 92 162 216 250 260 36 54 196 191 204 205 236 252 247 274 265 272 310 337 329 352 357 1
187 156 166 173 176 167 169 171 168 171 198 184 156 201 183 170 176 190 153 143 125 122 92 179 239 241 255 260 247 254 237 233 240 240 255 275 277 286 288 302 14 319 11 8 8
144 156 171 151 150 165 192 184 177 145 174 174 181 155 184 180 222 177 165 177 175 162 154 146 216 259 260 259 253 259 258 254 257 262 270 276 278 284 303 91 191 29 32 21 10
98 40 115 152 168 173 187 182 178 146 63 155 146 141 137 110 87 85 65 113 133 176 178 182 181 205 246 256 273 264 247 251 253 261 258 257 272 292 184 166 121 82 46 26 14